SCP
0 0 0 0 0 0 0 0 0 0 0 0 0 0 0 0 0 0 0 0 0 0 0 0 0 0 0 0 0 0 0 0 0 0 0 0 0 0 0 0 0 0 0
0 0 0 0 0 0 0 0 0 0 0 0 0 0 0 0 0 0 0 0 0 0 0 0 0 0 0 0 0 0 0 0 0 0 0 0 0 0 0 0 0 0 0
0 0 0 0 0 0 0 0 0 0 0 0 0 0 0 0 0 0 0 0 0 0 0 0 0 0 0 0 0 0 0 0 0 0 0 0 0 0 0 0 0 0 0
0 0 0 0 0 0 0 0 0 0 0 0 0 0 0 0 0 0 0 0 0 0 0 0 0 0 0 0 0 0 0 0 0 0 0 0 0 0 0 0 0 0 0
0 0 0 0 0 0 0 0 0 0 0 0 0 0 0 0 0 0 0 0 0 0 0 0 0 0 0 0 0 0 0 0 0 0 0 0 0 0 0 0 0 0 0
0 0 0 0 0 0 0 0 0 0 0 0 0 0 0 0 0 0 0 0 0 0 0 0 0 0 0 0 0 0 0 0 0 0 0 0 0 0 0 0 0 0 0
0 0 0 0 0 0 0 0 0 0 0 0 0 0 0 0 0 0 0 0 0 0 0 0 0 0 0 0 0 0 0 0 0 0 0 0 0 0 0 0 0 0 0
0 0 0 0 0 0 0 0 0 0 0 0 0 0 0 0 0 0 0 0 0 0 0 0 0 0 0 0 0 0 0 0 0 0 0 0 0 0 0 0 0 0 0
0 0 0 0 0 0 0 0 0 0 0 0 0 0 0 0 0 0 0 0 0 0 0 0 0 0 0 0 0 0 0 0 0 0 0 0 0 0 0 0 0 0 0
0 0 0 0 0 0 0 0 0 0 0 0 0 0 0 0 0 0 0 0 0 0 0 0 0 0 0 0 0 0 0 0 0 0 0 0 0 0 0 0 0 0 0
0 0 0 0 0 0 0 0 0 0 0 0 0 0 0 0 0 0 0 0 0 0 0 0 0 0 0 0 0 0 0 0 0 0 0 0 0 0 0 0 0 0 0
0 0 0 0 0 0 0 0 0 0 0 0 0 0 0 0 0 0 0 0 0 0 0 0 0 0 0 0 0 0 0 0 0 0 0 0 0 0 0 0 0 0 0
0 0 0 0 0 0 0 0 0 0 0 0 0 0 0 0 0 0 0 0 0 0 0 0 0 0 0 0 0 0 0 0 0 0 0 0 0 0 0 0 0 0 0
0 0 0 0 0 0 0 0 0 0 0 0 0 0 0 0 0 0 0 0 0 0 0 0 0 0 0 0 0 0 0 0 0 0 0 0 0 0 0 0 0 0 0
0 0 0 0 0 0 0 0 0 0 0 0 0 0 0 0 0 0 0 0 0 0 0 0 0 0 0 0 0 0 0 0 0 0 0 0 0 0 0 0 0 0 0
0 0 0 0 0 0 0 0 0 0 0 0 0 0 0 0 0 0 0 0 0 0 0 0 0 0 0 0 0 0 0 0 0 0 0 0 0 0 0 0 0 0 0
0 0 0 0 0 0 0 0 0 0 0 0 0 0 0 0 0 0 0 0 0 0 0 0 0 0 0 0 0 0 0 0 0 0 0 0 0 0 0 0 0 0 0
0 0 0 0 0 0 0 0 0 0 0 0 0 0 0 0 0 0 0 0 0 0 0 0 0 0 0 0 0 0 0 0 0 0 0 0 0 0 0 0 0 0 0
0 0 0 0 0 0 0 0 0 0 0 0 0 0 0 0 0 0 0 0 0 0 0 0 0 0 0 0 0 0 0 0 0 0 0 0 0 0 0 0 0 0 0
0 0 0 0 0 0 0 0 0 0 0 0 0 0 0 0 0 0 0 0 0 0 0 0 0 0 0 0 0 0 0 0 0 0 0 0 0 0 0 0 0 0 0
0 0 0 0 0 0 0 0 0 0 0 0 0 0 0 0 0 0 0 0 0 0 0 0 0 0 0 0 0 0 0 0 0 0 0 0 0 0 0 0 0 0 0
0 0 0 0 0 0 0 0 0 0 0 0 0 0 0 0 0 0 0 0 0 0 0 0 0 0 0 0 0 0 0 0 0 0 0 0 0 0 0 0 0 0 0
0 0 0 0 0 0 0 0 0 0 0 0 0 0 0 0 0 0 0 0 0 0 0 0 0 0 0 0 0 0 0 0 0 0 0 0 0 0 0 0 0 0 0
0 0 0 0 0 0 0 0 0 0 0 0 0 0 0 0 0 0 0 0 0 0 0 0 0 0 0 0 0 0 0 0 0 0 0 0 0 0 0 0 0 0 0
0 0 0 0 0 0 0 0 0 0 0 0 0 0 0 0 0 0 0 0 0 0 0 0 0 0 0 0 0 0 0 0 0 0 0 0 0 0 0 0 0 0 0
0 0 0 0 0 0 0 0 0 0 0 0 0 0 0 0 0 0 0 0 0 0 0 0 0 0 0 0 0 0 0 0 0 0 0 0 0 0 0 0 0 0 0
Wind_Speed
13 10 11 11 10 11 13 16 17 16 14 12 12 12 12 11 10 9 10 12 11 11 9 6 6 6 6 6 6 3 3 2 2 2 2 2 2 2 2 1 1 2 2
9 9 9 10 12 14 16 17 18 17 17 15 14 11 9 7 7 7 9 11 12 12 10 9 7 7 6 6 6 4 3 2 2 3 2 1 2 2 2 2 1 1 1
13 11 10 11 12 14 16 16 18 19 19 16 9 7 5 4 6 9 10 12 13 12 11 11 9 8 7 7 7 6 6 4 2 1 3 3 3 2 2 1 1 1 1
12 11 11 10 12 15 14 15 17 17 17 16 14 16 13 12 13 10 10 10 12 12 12 11 10 9 7 7 7 6 5 5 3 2 1 2 3 3 1 2 2 2 1
12 12 11 12 12 11 11 13 14 15 15 17 18 18 14 11 7 6 10 10 10 11 12 11 10 10 8 8 8 7 6 5 5 4 3 2 1 2 2 2 3 2 2
11 10 9 8 7 7 8 10 12 13 15 17 18 18 16 12 11 10 12 10 7 8 11 11 10 10 8 9 9 8 8 6 5 4 4 4 4 3 3 3 2 2 3
9 9 8 8 8 8 9 9 12 13 14 17 17 18 17 16 16 14 13 11 8 8 11 10 10 9 9 9 8 8 8 7 7 6 4 4 3 3 4 3 2 2 2
8 9 9 8 8 8 9 10 12 12 13 16 16 14 14 11 10 12 11 12 10 10 12 12 11 10 10 9 8 7 7 6 6 6 5 4 3 3 4 4 3 1 2
9 8 7 7 7 8 9 10 11 11 12 14 13 13 13 12 11 11 10 9 8 8 11 12 11 10 10 10 10 7 7 7 6 6 6 4 3 3 3 3 4 4 3
8 7 7 7 6 6 6 7 8 10 10 11 12 10 12 12 11 10 11 10 9 9 11 11 11 10 10 10 9 7 7 7 6 5 6 4 3 3 3 3 3 3 4
9 7 6 5 5 5 6 6 7 7 8 10 10 10 10 10 10 10 11 10 10 11 12 12 11 11 11 10 9 8 8 8 6 5 6 6 5 4 3 3 3 3 3
6 6 5 5 5 6 6 6 7 7 8 8 9 9 10 10 10 10 10 10 11 11 11 11 11 11 11 11 11 10 9 9 9 7 7 6 4 5 3 3 4 4 4
5 4 5 5 6 6 6 6 7 7 7 7 8 9 9 10 10 10 10 10 10 10 10 10 11 11 11 10 10 10 10 9 8 8 8 7 6 5 4 4 4 3 3
5 5 5 6 6 6 6 6 6 6 7 8 8 9 10 10 10 9 10 10 10 10 10 10 10 10 9 9 9 9 8 7 6 6 6 6 7 7 6 5 5 4 3
6 7 7 6 6 6 6 6 7 7 7 8 8 8 8 8 8 9 9 9 9 9 9 9 8 8 8 8 9 8 8 7 6 5 5 5 7 8 6 5 4 4 3
8 7 7 7 8 8 8 7 7 7 8 8 8 7 8 8 8 8 8 8 8 8 8 8 9 8 7 12 14 11 8 7 7 6 4 4 5 7 8 9 7 6 5
8 8 8 9 9 9 9 9 8 8 8 8 8 8 8 8 8 8 8 8 8 8 8 8 8 8 8 13 14 14 8 7 6 6 4 3 4 5 3 6 8 7 9
7 8 8 7 6 6 7 7 8 9 9 8 8 8 9 9 8 8 8 8 7 7 7 7 7 6 7 12 13 13 7 5 5 5 5 4 3 3 4 3 3 4 5
8 8 7 7 7 8 9 10 9 9 9 9 9 9 9 10 9 9 8 7 7 6 6 6 7 7 6 9 11 11 6 4 4 3 3 4 3 6 6 3 4 4 5
5 4 4 5 7 8 10 11 10 10 9 9 9 8 9 10 10 9 7 6 6 6 6 6 5 6 5 8 10 11 5 4 3 2 2 4 4 5 5 3 3 5 5
5 5 6 6 7 10 11 11 10 9 8 8 8 8 8 9 9 8 6 8 7 7 7 6 5 4 5 7 9 10 5 5 4 2 2 2 4 5 6 4 3 6 5
4 5 6 6 6 9 11 11 9 8 9 10 10 9 8 8 8 9 8 8 9 8 7 6 5 3 3 4 6 8 6 5 4 3 2 2 4 4 5 4 6 8 6
5 5 7 8 6 7 10 12 9 10 11 11 10 9 9 8 8 9 9 7 7 6 5 5 4 3 2 2 5 5 5 4 2 2 2 2 2 2 2 5 6 5 2
6 6 9 10 7 6 7 10 11 12 13 13 10 9 10 9 7 6 6 7 6 6 5 5 4 3 2 1 2 2 2 3 2 2 1 1 2 2 2 3 3 2 2
5 7 9 10 10 9 10 10 11 13 14 12 10 9 9 9 8 6 5 5 4 6 7 5 5 5 3 3 4 3 2 2 2 3 2 1 1 1 1 2 2 2 2
7 8 9 11 11 11 11 10 10 13 15 12 10 8 8 8 8 8 8 10 8 10 10 9 7 4 5 5 5 4 3 3 3 3 1 0 0 1 2 2 2 2 2
Wind_Direction
232 225 214 207 198 194 193 194 195 195 188 190 192 194 198 195 194 193 189 187 186 184 182 181 174 172 175 174 161 142 138 123 121 100 39 11 28 45 35 44 63 52 48
234 228 217 206 200 199 198 198 198 194 191 195 196 197 191 190 190 187 190 190 188 186 186 183 180 179 171 166 164 151 140 131 135 135 116 10 344 1 20 23 56 38 22
225 225 217 211 204 204 202 200 200 196 195 192 179 162 149 149 177 192 195 195 192 189 187 186 181 179 174 178 177 168 156 157 149 140 146 157 219 287 326 347 4 352 356
224 222 215 212 209 210 204 202 199 196 193 184 181 181 187 193 196 190 190 188 190 190 188 185 183 181 180 178 179 173 164 150 158 147 107 139 152 155 284 314 322 327 307
224 224 217 213 212 207 200 200 196 194 188 186 188 190 196 197 178 166 176 184 189 190 188 186 184 183 183 181 175 170 171 164 160 161 153 134 96 127 161 254 301 320 298
226 227 223 210 206 195 191 189 189 191 187 188 189 193 194 183 170 174 182 185 184 187 189 186 185 185 182 181 179 177 175 174 164 162 160 159 161 177 171 202 242 271 288
223 222 214 204 197 187 185 183 185 189 187 188 192 195 194 187 185 183 184 182 181 187 191 185 185 184 184 180 173 173 177 175 172 174 177 175 172 158 157 163 199 247 288
219 214 208 201 195 190 184 181 185 188 186 189 193 193 190 189 189 186 183 186 190 190 185 185 186 183 179 175 171 171 176 174 177 178 173 173 179 166 165 163 159 210 288
217 212 206 197 191 186 185 184 183 184 187 190 189 188 188 188 187 183 181 185 185 178 178 182 181 179 176 174 170 175 174 171 177 178 177 176 181 176 174 167 165 168 224
213 209 204 196 189 184 178 174 179 184 185 186 186 187 189 188 183 178 181 181 177 172 173 177 177 176 175 173 172 171 171 170 174 171 174 180 178 177 176 176 178 176 184
206 203 198 188 174 164 163 165 170 172 177 181 181 180 182 180 177 179 182 178 173 172 176 177 176 176 176 174 174 174 169 172 171 172 179 188 177 179 183 177 180 189 181
200 191 183 167 163 166 165 167 168 172 177 176 175 177 174 172 176 178 177 173 173 176 176 174 175 176 177 176 176 174 174 176 178 181 180 190 180 188 186 185 195 200 197
190 177 172 175 177 174 171 169 169 170 166 163 165 168 169 172 176 176 172 170 171 171 170 172 176 177 176 177 178 176 177 180 181 179 183 185 178 195 196 198 204 206 209
189 183 186 189 183 177 173 167 166 162 158 159 163 169 173 175 174 169 167 168 168 169 172 175 176 174 171 173 172 170 172 173 175 178 182 182 187 196 195 202 210 205 211
200 199 197 192 182 175 171 165 162 159 157 159 166 172 168 163 159 160 162 162 164 168 168 165 165 164 166 171 167 166 166 167 169 175 184 190 197 203 200 201 202 195 207
212 206 199 191 188 183 175 167 164 162 158 162 166 159 153 153 156 157 154 154 157 158 158 163 163 166 173 175 173 166 164 165 169 178 185 193 203 217 224 233 229 212 210
210 204 201 199 195 186 173 171 164 155 157 159 157 154 153 154 155 151 150 155 157 153 155 159 160 167 170 172 174 173 161 164 173 176 177 188 207 216 221 246 255 251 252
212 211 205 199 189 164 154 148 146 152 156 155 155 154 152 151 148 148 152 152 149 153 155 158 161 159 168 172 171 168 154 156 168 174 180 190 206 215 215 216 237 250 256
209 208 199 186 164 156 151 144 147 150 154 159 159 158 153 149 148 151 152 147 145 145 147 152 154 154 158 166 164 155 142 150 163 170 176 185 206 240 247 223 236 257 265
216 199 167 153 155 155 147 145 152 156 165 164 158 153 150 149 152 151 144 136 138 138 134 132 141 147 148 156 158 151 142 149 156 160 185 210 226 249 260 228 222 255 261
209 174 155 161 164 152 147 147 152 164 158 142 137 138 141 142 140 133 130 131 126 123 123 121 118 128 139 151 156 155 149 159 161 175 198 227 255 266 271 268 235 266 286
181 160 152 152 147 150 147 146 154 145 131 129 128 129 129 128 128 124 122 125 128 125 124 120 110 101 121 139 156 161 160 156 160 184 198 223 256 273 281 284 291 299 311
172 156 146 137 137 149 148 144 144 135 130 125 124 122 118 116 125 129 129 126 127 128 131 131 130 125 114 136 149 154 152 153 148 168 200 240 272 293 299 303 308 317 319
158 147 140 138 139 141 135 132 134 133 127 125 124 123 120 115 111 114 124 128 133 132 133 136 137 130 120 125 134 133 131 124 113 101 65 33 11 10 330 317 318 315 288
150 150 149 143 139 133 125 128 133 130 124 122 123 120 118 119 111 102 105 119 129 145 144 149 149 147 156 177 158 143 139 139 143 118 88 63 32 347 322 315 303 301 311
144 140 136 134 133 130 127 130 133 131 128 126 126 124 122 119 117 111 91 79 96 105 108 117 121 116 119 120 120 113 103 99 109 99 97 116 277 278 284 289 295 292 292